Location: MAC-Johnson Site
(33.6264°N, 81.2093°W)
Time: 17:34:47
(UTC-04:00)

Envisat - Visible Passes

Search period start: 19 September 2024 00:00
Search period end: 29 September 2024 00:00
Orbit: 762 x 764 km, 98.3° (Epoch: 19 September)

Date Brightness Start Highest point End Pass type
(mag) Time Alt. Az. Time Alt. Az. Time Alt. Az.
19 Sep 4.5 04:21:49 10° NNE 04:24:23 30° NNE 04:24:23 30° NNE visible
19 Sep 5.0 06:03:39 10° NW 06:04:32 11° NW 06:04:32 11° NW visible
20 Sep 5.5 03:44:58 10° NE 03:46:23 17° NE 03:46:23 17° NE visible
20 Sep 4.4 05:23:56 10° NNW 05:26:31 22° NW 05:26:31 22° NW visible
21 Sep 4.3 04:45:53 10° N 04:48:31 31° N 04:48:31 31° N visible
22 Sep 5.0 04:08:32 10° NNE 04:10:30 23° NNE 04:10:30 23° NNE visible
22 Sep 4.8 05:49:01 10° NNW 05:50:39 14° NW 05:50:39 14° NW visible
23 Sep 5.9 03:32:04 10° NE 03:32:30 12° NE 03:32:30 12° NE visible
23 Sep 4.4 05:10:14 10° N 05:12:39 25° NNW 05:12:39 25° NNW visible
24 Sep 4.7 04:32:26 10° NNE 04:34:37 26° NNE 04:34:37 26° NNE visible
25 Sep 5.5 03:55:20 10° NNE 03:56:36 17° NE 03:56:36 17° NE visible
25 Sep 4.7 05:34:58 10° NNW 05:36:45 17° NW 05:36:45 17° NW visible
26 Sep 4.6 04:56:37 10° N 04:58:44 24° N 04:58:44 24° N visible
27 Sep 5.1 04:19:04 10° NNE 04:20:43 21° NNE 04:20:43 21° NNE visible
27 Sep 5.1 06:00:36 10° NW 06:00:51 10° NW 06:00:51 10° NW visible
28 Sep 5.9 03:42:16 10° NE 03:42:41 12° NE 03:42:41 12° NE visible
28 Sep 4.8 05:21:07 10° NNW 05:22:49 19° NNW 05:22:49 19° NNW visible
